軌道要素
Epoch 2014 Mar. 4.0 TT = JDT 2456720.5
T 2014 Feb. 18.21810 TT Rudenko
q 1.1176748 (2000.0) P Q
n 0.14401532 Peri. 112.19969 -0.43073324 -0.90242888
a 3.6046540 Node 3.36035 +0.75645270 -0.36678223
e 0.6899356 Incl. 9.36577 +0.49218715 -0.22603740
P 6.84
From 525 observations 2013 Oct. 4-2020 Oct. 25, mean residual 0".5.
|